Regional Weather Roundup
Issued by NWS

Home | Current Version | Previous Version | Graphics & Text | Print | Product List | Glossary On
Versions: 1 2 3 4 5 6 7 8 9 10 11 12 13 14 15 16 17 18 19 20 21 22 23 24 25 26 27 28 29 30 31 32 33 34 35 36 37 38 39 40 41 42 43 44 45 46 47 48 49 50
000
ASUS43 KMPX 272001
RWRMN
WEATHER ROUNDUP FOR MINNESOTA
NATIONAL WEATHER SERVICE TWIN CITIES/CHANHASSEN MN
300 PM CDT MON MAR 27 2017


NOTE: "FAIR" INDICATES FEW OR NO CLOUDS BELOW 12,000 FEET WITH NO
SIGNIFICANT WEATHER AND/OR OBSTRUCTIONS TO VISIBILITY. N/A MEANS
CURRENT SKY AND/OR WEATHER CONDITIONS ARE NOT AVAILABLE.

MNZ060>063-068>070-272100-
   Twin Cities Metro

CITY           SKY/WX    TMP DP  RH WIND       PRES   REMARKS
TWIN CITIES    PTSUNNY   56  32  40 VRB6      29.95F
ST PAUL        MOSUNNY   55  34  45 VRB5      29.95F
CRYSTAL        SUNNY     57  30  35 N7        29.94F
BLAINE         MOSUNNY   57  34  41 NE7       29.95S
LAKEVILLE      PTSUNNY   52  36  54 CALM      29.95S
EDEN PRAIRIE   SUNNY     58  33  39 MISG      29.93F
SOUTH ST PAUL  CLOUDY    54  33  45 CALM      29.95S
LAKE ELMO      CLOUDY    54  37  54 E5        29.97S
$$
MNZ001>005-007-008-013>017-022>024-027-028-272100-
   Northwest Minnesota

CITY           SKY/WX    TMP DP  RH WIND       PRES   REMARKS
BEMIDJI        SUNNY     54  32  42 E6        29.96F
HALLOCK        CLOUDY    36  36 100 NE6       30.01F FOG
ROSEAU         SUNNY     52  43  71 NW6       29.99R
WARROAD        SUNNY     48  37  66 NE6       29.99S
THIEF RVR FALL SUNNY    N/A N/A N/A VRB3      29.98F
CROOKSTON      MOSUNNY   45  45 100 CALM      29.98F
FOSSTON        SUNNY     57  50  77 CALM      29.97S
DETROIT LAKES  SUNNY     55  34  44 W3        29.97S
MOORHEAD       SUNNY     54  43  66 SW3       29.98S
PARK RAPIDS    SUNNY     57  34  41 VRB3      29.94F
MAHNOMEN       FAIR      53  40  63 NE3       29.96F
$$
MNZ006-009>011-018-025>026-272100-
   North Central Minnesota

CITY           SKY/WX    TMP DP  RH WIND       PRES   REMARKS
BAUDETTE       SUNNY     51  33  50 CALM      29.97F
FLAG ISLAND    MOSUNNY   37  30  75 S3        29.99S
INTL FALLS     SUNNY     53  29  39 MISG      29.97F
WASKISH        MOSUNNY   46  36  66 W7        29.97F
BIG FORK       SUNNY     55  30  38 SE3       29.96F
LONGVILLE      SUNNY     55  32  41 N3        29.95F
GRAND RAPIDS   SUNNY     53  33  46 N5        29.97F
CRANE LAKE     SUNNY     52  28  40 NW3       29.98F
ORR            SUNNY     54  27  35 CALM      29.94F
COOK           SUNNY     54  30  40 NE6       29.96F
WALKER         FAIR      49  32  51 SE6       29.96F
$$
MNZ012-019>021-037-272100-
   Northeast Minnesota

CITY           SKY/WX    TMP DP  RH WIND       PRES   REMARKS
DULUTH         CLOUDY    50  35  56 NE6       29.96F
ELY            SUNNY     50  27  40 N3        29.96F
HIBBING          N/A     51  32  48 VRB5      29.95F
EVELETH        SUNNY     53  24  32 CALM      29.97S
DULUTH HARBOR  CLOUDY    43  36  75 CALM      30.00S
TWO HARBORS    CLOUDY    50  39  66 S3        29.95F
SILVER BAY     PTSUNNY   48  36  61 E3        29.95F
GRAND MARAIS     N/A     39  35  86 SW6       29.99S
G MARAIS ARPRT CLOUDY    43  30  61 SE5       29.96S
$$
MNZ029>031-032-039>041-046>048-054>057-064-272100-
   West Central Minnesota

CITY           SKY/WX    TMP DP  RH WIND       PRES   REMARKS
FERGUS FALLS   SUNNY     55  37  50 CALM      29.99F
WHEATON        MOSUNNY   55  34  44 CALM      29.98F
MORRIS         SUNNY     57  32  38 CALM      29.95F
ALEXANDRIA     CLOUDY    55  35  47 CALM      29.96F
ELBOW LAKE     FAIR      53  37  53 CALM      29.97S
WADENA         MOSUNNY   55  36  47 SE3       29.95S
GLENWOOD       SUNNY     55  36  47 S3        29.96F
APPLETON       SUNNY     54  34  47 N3        29.96F
BENSON         SUNNY     59  28  31 E5        29.98S
MADISON        SUNNY     57  39  51 CALM      29.96F
WILLMAR        FAIR      55  34  44 NE3       29.97S
$$
MNZ033>034-036-042>043-049>051-058-059-272100-
   Central Minnesota

CITY           SKY/WX    TMP DP  RH WIND       PRES   REMARKS
ST CLOUD       CLOUDY    54  36  50 N7        29.95F
SAUK CENTRE    MOCLDY    53  34  50 E5        29.96S
PAYNESVILLE      N/A     54  32  43 NE5       29.97S
AITKIN         SUNNY     55  30  38 CALM      29.94F
PINE RIVER     SUNNY     55  36  47 E5        29.98F
BRAINERD       CLOUDY    53  34  48 CALM      29.95F
STAPLES        MOSUNNY   55  34  44 E3        29.95F
LONG PRAIRIE   FAIR      54  34  47 CALM      29.96S
LITTLE FALLS   MOSUNNY   54  32  43 E6        29.95F
LITCHFIELD     SUNNY     57  37  47 CALM      29.96S
BUFFALO        MOSUNNY   55  33  42 NE5       29.96F
MAPLE LAKE     MOSUNNY   56  38  51 NE5       29.97S
HUTCHINSON     MOSUNNY   56  38  51 NE5       29.97S
$$
MNZ037-044-045-052-053-272100-
   East Central Minnesota

CITY           SKY/WX    TMP DP  RH WIND       PRES   REMARKS
PRINCETON      MOSUNNY   55  36  47 N6        29.96F
MORA           MOSUNNY   50  32  50 CALM      29.97F
CAMBRIDGE      MOSUNNY   55  37  50 CALM      29.94F
RUSH CITY      CLOUDY    53  36  53 CALM      29.95F
MOOSE LAKE     CLOUDY    50  34  53 CALM      29.95F
CLOQUET        CLOUDY    50  32  50 N5        29.96F
MCGREGOR       SUNNY     54  36  50 NE3       29.95F
$$
MNZ071>073-080-081-089-090-097-098-272100-
   Southwest Minnesota

CITY           SKY/WX    TMP DP  RH WIND       PRES   REMARKS
MONTEVIDEO     SUNNY     59  39  47 E6        29.98S
GRANITE FALLS  SUNNY     58  38  47 CALM      29.98S
CANBY          SUNNY     55  37  50 CALM      29.97F
MARSHALL       MOSUNNY   53  36  52 E8        29.96F
REDWOOD FALLS  SUNNY     56  37  49 NE8       29.96S
OLIVIA         SUNNY     55  36  47 CALM      29.96R
PIPESTONE      SUNNY     55  34  44 E5        29.94F
WINDOM         MOSUNNY   52  37  58 N5        29.97S
WORTHINGTON    CLOUDY    48  37  65 CALM      29.98S
JACKSON        CLOUDY    46  37  71 N3        29.98S
TRACY          MOSUNNY   54  38  55 NE5       29.97S
SLAYTON        PTSUNNY   50  37  60 CALM      29.97F
$$
MNZ065>067-074>077-082>085-091>093-272100-
   South Central Minnesota

CITY           SKY/WX    TMP DP  RH WIND       PRES   REMARKS
MANKATO        MOSUNNY   52  38  58 NE9       29.96F
NEW ULM        MOSUNNY   54  36  50 CALM      29.95F
ST JAMES       PTSUNNY   52  39  62 CALM      29.98S
FAIRMONT       CLOUDY    48  40  73 NE7       29.97F
GLENCOE        CLOUDY    56  40  55 NE6       29.95S
FARIBAULT      CLOUDY    52  39  62 E8        29.96F
OWATONNA       MOSUNNY   50  37  62 NE6       29.96F
WASECA         CLOUDY    52  41  66 N7        29.97F
ALBERT LEA     CLOUDY    45  39  81 N7        29.96S
$$
MNZ078>079-086>088-094>096-272100-
   Southeast Minnesota

CITY           SKY/WX    TMP DP  RH WIND       PRES   REMARKS
ROCHESTER      CLOUDY    44  39  82 N6        29.96S
RED WING       CLOUDY    50  37  62 N7        29.96S
STANTON        CLOUDY    49  39  67 E6        29.95F
DODGE CENTER   CLOUDY    45  39  81 N7        29.96S
WINONA         CLOUDY    45  39  81 N3        29.97S
AUSTIN         CLOUDY    45  39  81 N7        29.96R
PRESTON        CLOUDY    44  38  79 N5        29.95S
$$
ABBREVIATIONS USED IN REMARKS
   TC - TEMPERATURES IN CELSIUS
  WCI - WIND CHILL INDEX
   HX - HEAT INDEX
  VSB - VISIBILITY
$$



USA.gov is the U.S. government's official web portal to all federal, state and local government web resources and services.